TimeEDT,TemperatureF,Dew PointF,Humidity,Sea Level PressureIn,VisibilityMPH,Wind Direction,Wind SpeedMPH,Gust SpeedMPH,PrecipitationIn,Events,Conditions,WindDirDegrees,DateUTC
12:15 AM,32.0,3.7,30,29.87,10.0,West,11.5,20.7,N/A,,Overcast,270,2013-04-03 04:15:00
12:35 AM,31.8,4.3,31,29.87,10.0,West,11.5,21.9,N/A,,Overcast,280,2013-04-03 04:35:00
12:55 AM,31.5,4.5,32,29.88,10.0,West,11.5,23.0,N/A,,Overcast,280,2013-04-03 04:55:00
1:15 AM,30.7,4.5,33,29.88,10.0,West,9.2,17.3,N/A,,Overcast,270,2013-04-03 05:15:00
1:35 AM,30.7,4.5,33,29.88,10.0,West,8.1,19.6,N/A,,Overcast,270,2013-04-03 05:35:00
1:55 AM,30.6,5.5,35,29.88,10.0,West,9.2,26.5,N/A,,Overcast,280,2013-04-03 05:55:00
2:15 AM,29.8,5.7,36,29.88,10.0,West,9.2,-,N/A,,Overcast,260,2013-04-03 06:15:00
2:35 AM,30.2,6.6,37,29.88,10.0,West,9.2,21.9,N/A,,Overcast,280,2013-04-03 06:35:00
2:55 AM,29.8,7.3,39,29.87,10.0,West,11.5,20.7,N/A,,Overcast,280,2013-04-03 06:55:00
3:15 AM,29.5,8.1,41,29.87,10.0,WNW,9.2,-,N/A,,Overcast,290,2013-04-03 07:15:00
3:35 AM,29.3,8.6,42,29.87,10.0,WNW,5.8,21.9,N/A,,Overcast,290,2013-04-03 07:35:00
3:55 AM,29.3,9.1,43,29.87,10.0,WNW,11.5,20.7,N/A,,Overcast,290,2013-04-03 07:55:00
4:15 AM,29.3,7.7,40,29.87,10.0,WNW,8.1,23.0,N/A,,Mostly Cloudy,290,2013-04-03 08:15:00
4:35 AM,29.3,8.2,41,29.88,10.0,West,8.1,23.0,N/A,,Mostly Cloudy,270,2013-04-03 08:35:00
4:55 AM,29.3,9.0,43,29.89,10.0,West,8.1,-,N/A,,Overcast,280,2013-04-03 08:55:00
5:15 AM,29.3,8.6,42,29.90,10.0,WNW,11.5,18.4,N/A,,Overcast,290,2013-04-03 09:15:00
5:35 AM,28.2,7.0,41,29.90,10.0,West,11.5,20.7,N/A,,Overcast,280,2013-04-03 09:35:00
5:55 AM,27.1,6.3,41,29.91,10.0,West,8.1,18.4,N/A,,Overcast,270,2013-04-03 09:55:00
6:15 AM,27.1,5.5,40,29.92,10.0,West,12.7,21.9,N/A,,Overcast,270,2013-04-03 10:15:00
6:35 AM,27.0,5.9,41,29.92,10.0,West,11.5,21.9,N/A,,Overcast,280,2013-04-03 10:35:00
6:55 AM,27.0,6.4,42,29.94,10.0,West,9.2,18.4,N/A,,Overcast,270,2013-04-03 10:55:00
7:15 AM,27.0,6.6,42,29.94,10.0,West,5.8,19.6,N/A,,Overcast,270,2013-04-03 11:15:00
7:55 AM,27.0,7.2,43,29.96,10.0,West,15.0,23.0,N/A,,Clear,260,2013-04-03 11:55:00
8:15 AM,27.0,7.2,43,29.96,10.0,West,6.9,20.7,N/A,,Scattered Clouds,280,2013-04-03 12:15:00
8:35 AM,29.3,9.0,43,29.96,10.0,West,12.7,23.0,N/A,,Mostly Cloudy,280,2013-04-03 12:35:00
8:55 AM,29.3,9.0,43,29.97,10.0,West,9.2,25.3,N/A,,Overcast,260,2013-04-03 12:55:00
9:15 AM,29.3,8.2,41,29.97,10.0,West,11.5,23.0,N/A,,Mostly Cloudy,270,2013-04-03 13:15:00
9:35 AM,29.3,7.2,39,29.97,10.0,West,11.5,20.7,N/A,,Scattered Clouds,280,2013-04-03 13:35:00
9:55 AM,30.4,6.8,37,29.97,10.0,WNW,13.8,23.0,N/A,,Scattered Clouds,290,2013-04-03 13:55:00
10:15 AM,31.3,7.3,37,29.97,10.0,West,9.2,20.7,N/A,,Scattered Clouds,270,2013-04-03 14:15:00
10:35 AM,32.0,7.3,36,29.97,10.0,WNW,11.5,23.0,N/A,,Scattered Clouds,290,2013-04-03 14:35:00
10:55 AM,32.0,6.8,35,29.97,10.0,WNW,11.5,26.5,N/A,,Scattered Clouds,290,2013-04-03 14:55:00
11:15 AM,34.2,8.8,35,29.96,10.0,WNW,11.5,21.9,N/A,,Scattered Clouds,290,2013-04-03 15:15:00
11:35 AM,34.2,8.6,34,29.97,10.0,West,11.5,21.9,N/A,,Clear,270,2013-04-03 15:35:00
11:55 AM,34.2,7.5,33,29.97,10.0,WSW,16.1,21.9,N/A,,Clear,250,2013-04-03 15:55:00
12:15 PM,34.3,7.5,33,29.97,10.0,WNW,10.4,24.2,N/A,,Clear,290,2013-04-03 16:15:00
12:35 PM,36.3,8.6,32,29.97,10.0,West,16.1,23.0,N/A,,Clear,280,2013-04-03 16:35:00
12:55 PM,36.7,7.7,30,29.97,10.0,West,10.4,19.6,N/A,,Clear,270,2013-04-03 16:55:00
1:15 PM,36.7,7.2,29,29.96,10.0,WNW,13.8,19.6,N/A,,Clear,290,2013-04-03 17:15:00
1:35 PM,38.8,7.7,28,29.97,10.0,West,16.1,27.6,N/A,,Scattered Clouds,260,2013-04-03 17:35:00
1:55 PM,39.2,7.7,27,29.97,10.0,West,15.0,26.5,N/A,,Mostly Cloudy,260,2013-04-03 17:55:00
2:15 PM,36.7,5.5,27,29.97,10.0,WNW,8.1,21.9,N/A,,Overcast,290,2013-04-03 18:15:00
2:35 PM,36.7,7.0,29,29.98,7.0,West,12.7,19.6,N/A,,Overcast,270,2013-04-03 18:35:00
2:55 PM,36.7,7.0,29,29.99,10.0,West,11.5,23.0,N/A,,Overcast,280,2013-04-03 18:55:00
3:15 PM,36.7,8.2,31,29.99,10.0,West,10.4,23.0,N/A,,Overcast,280,2013-04-03 19:15:00
3:35 PM,36.5,8.2,31,30.00,10.0,WNW,11.5,21.9,N/A,,Overcast,290,2013-04-03 19:35:00
3:55 PM,36.3,8.8,32,30.00,10.0,West,8.1,18.4,N/A,,Overcast,280,2013-04-03 19:55:00
4:15 PM,36.7,8.4,31,30.00,10.0,WNW,11.5,19.6,N/A,,Overcast,290,2013-04-03 20:15:00
4:35 PM,36.7,7.9,30,30.00,10.0,West,10.4,26.5,N/A,,Overcast,270,2013-04-03 20:35:00
4:55 PM,36.7,9.0,32,30.01,10.0,West,12.7,24.2,N/A,,Overcast,280,2013-04-03 20:55:00
5:15 PM,36.7,10.8,34,30.02,10.0,WNW,10.4,19.6,N/A,,Overcast,300,2013-04-03 21:15:00
5:35 PM,36.7,10.4,34,30.02,10.0,West,12.7,23.0,N/A,,Overcast,280,2013-04-03 21:35:00
5:55 PM,36.7,10.4,34,30.03,10.0,WNW,11.5,25.3,N/A,,Overcast,300,2013-04-03 21:55:00
6:15 PM,36.7,11.5,35,30.04,10.0,West,12.7,21.9,N/A,,Overcast,280,2013-04-03 22:15:00
6:35 PM,36.3,12.2,37,30.05,10.0,West,13.8,25.3,N/A,,Overcast,280,2013-04-03 22:35:00
6:55 PM,35.2,12.4,39,30.07,10.0,WNW,12.7,25.3,N/A,,Overcast,290,2013-04-03 22:55:00
7:15 PM,34.3,12.4,40,30.08,10.0,WNW,9.2,19.6,N/A,,Overcast,290,2013-04-03 23:15:00
7:35 PM,34.2,12.4,41,30.09,10.0,West,9.2,20.7,N/A,,Overcast,280,2013-04-03 23:35:00
7:55 PM,34.2,13.1,42,30.10,10.0,West,10.4,21.9,N/A,,Scattered Clouds,280,2013-04-03 23:55:00
8:15 PM,34.2,13.5,43,30.11,10.0,West,9.2,-,N/A,,Clear,280,2013-04-04 00:15:00
8:35 PM,34.2,14.0,44,30.13,10.0,WNW,8.1,21.9,N/A,,Clear,290,2013-04-04 00:35:00
8:55 PM,34.2,14.5,45,30.14,10.0,West,5.8,-,N/A,,Clear,280,2013-04-04 00:55:00
9:15 PM,34.2,15.1,46,30.15,10.0,WNW,9.2,17.3,N/A,,Clear,290,2013-04-04 01:15:00
9:35 PM,34.2,15.6,47,30.15,10.0,WNW,6.9,18.4,N/A,,Clear,300,2013-04-04 01:35:00
9:55 PM,34.2,16.3,48,30.16,10.0,WNW,8.1,16.1,N/A,,Clear,290,2013-04-04 01:55:00
10:15 PM,33.8,16.5,49,30.16,10.0,West,5.8,-,N/A,,Clear,270,2013-04-04 02:15:00
10:35 PM,32.0,14.9,49,30.17,10.0,West,6.9,-,N/A,,Clear,280,2013-04-04 02:35:00
10:55 PM,32.0,14.9,49,30.17,10.0,West,5.8,-,N/A,,Clear,260,2013-04-04 02:55:00
11:15 PM,32.0,14.9,49,30.17,10.0,West,3.5,-,N/A,,Clear,270,2013-04-04 03:15:00
11:35 PM,32.0,14.5,49,30.17,10.0,West,4.6,-,N/A,,Clear,260,2013-04-04 03:35:00
11:55 PM,32.0,14.0,48,30.18,10.0,WSW,4.6,-,N/A,,Clear,240,2013-04-04 03:55:00